RH
68 69 78 87 95 94 76 72 67 78 79 78 82 79 83 93 94 89 81 78 92 99 100 100 100 100 100 100 99 90 80 73 80 99 97 100 100 100 100 99 88 91 92
69 77 88 100 99 87 71 78 84 90 85 78 76 84 90 91 94 99 96 86 88 90 99 100 100 100 100 100 99 99 94 88 84 97 99 100 99 100 99 100 98 94 92
93 97 97 100 84 77 77 80 80 82 82 87 92 92 91 92 97 95 98 99 97 91 96 100 100 99 100 100 100 100 100 100 95 95 97 100 100 100 100 100 99 99 94
100 99 100 93 75 78 82 85 86 86 82 80 89 90 92 89 83 83 88 96 98 99 93 100 100 99 99 100 100 100 100 100 100 94 98 99 99 100 100 100 100 100 100
100 100 97 93 90 90 85 79 79 82 80 80 77 80 79 76 70 84 90 90 93 96 99 100 92 100 99 97 99 100 100 100 100 98 98 98 98 100 98 100 100 100 100
98 100 100 89 79 75 77 76 75 78 80 83 83 80 78 72 72 81 86 96 88 81 90 94 99 99 100 97 97 97 98 99 98 96 96 96 98 98 98 100 100 99 98
100 99 100 100 86 82 81 80 80 86 91 92 93 92 86 83 83 90 97 100 98 92 84 92 98 99 100 100 99 96 100 92 86 90 96 94 98 99 99 100 99 97 94
99 98 97 98 94 92 90 94 96 96 96 96 97 96 96 92 85 91 95 99 99 98 94 85 93 97 100 100 100 100 100 100 94 92 91 93 94 100 99 97 99 100 100
80 87 94 98 99 99 99 98 98 98 97 97 95 93 95 90 86 91 96 99 98 98 97 90 83 95 94 100 100 100 100 100 100 92 93 89 96 100 100 100 100 98 97
76 82 88 91 92 91 91 90 96 97 98 96 98 93 97 98 98 99 99 100 100 100 100 98 96 93 97 100 100 99 99 99 100 100 100 100 100 100 100 92 98 94 94
66 73 79 85 87 84 81 90 91 91 95 97 99 97 97 97 98 96 100 100 100 100 100 100 100 97 96 100 100 100 96 99 100 100 100 100 100 100 100 100 97 91 93
62 66 71 78 83 80 85 91 94 98 95 96 99 95 88 87 90 90 93 100 100 100 100 100 99 99 94 100 100 97 95 100 100 100 100 100 100 100 100 100 99 100 96
57 59 64 71 75 80 83 87 91 94 87 97 96 92 87 85 88 90 95 98 100 100 100 100 100 99 100 100 98 100 100 100 100 100 99 99 100 100 100 99 99 99 99
50 55 61 68 75 81 84 86 90 90 93 99 95 91 97 95 94 94 98 99 100 100 100 98 100 100 100 100 100 100 100 100 99 99 99 100 100 100 99 99 99 99 99
49 54 63 70 78 83 86 90 90 90 94 100 100 100 100 98 98 100 100 100 100 100 99 99 100 100 100 100 100 100 100 100 100 100 100 99 99 99 99 99 99 99 94
54 55 64 73 79 83 87 87 85 86 86 85 92 100 99 99 99 100 99 100 98 97 99 100 99 100 100 100 100 100 100 100 100 100 100 98 97 97 98 99 98 96 95
56 59 61 63 70 84 84 85 91 90 85 82 88 90 95 99 100 99 99 97 98 95 99 99 99 99 100 100 100 99 99 100 100 100 99 98 98 98 97 97 97 97 96
65 65 66 70 75 83 84 91 94 97 95 90 87 90 91 91 90 99 97 94 98 100 97 98 98 99 99 99 99 100 100 100 100 99 99 99 98 97 96 95 96 95 96
61 64 67 72 75 75 78 84 92 94 94 91 89 86 92 99 97 96 94 100 98 97 96 98 98 98 98 99 99 99 99 99 99 99 99 98 98 96 95 96 97 97 96
67 70 72 70 71 71 71 79 84 91 92 93 92 91 94 95 98 95 97 97 97 98 96 99 99 97 97 98 98 99 99 99 99 99 99 98 99 97 96 97 97 97 96
70 68 67 64 64 64 66 75 75 87 93 92 94 94 94 100 96 96 97 98 96 98 99 100 98 97 98 97 97 98 99 99 99 99 98 98 99 98 99 98 97 96 95
71 66 66 65 62 62 64 69 72 78 86 92 94 96 94 100 96 95 97 98 98 98 99 96 97 97 99 97 98 98 99 99 100 99 99 99 99 99 99 98 98 97 89
73 67 70 66 66 66 66 66 70 77 73 86 94 98 99 98 95 97 97 98 99 99 99 98 98 98 97 96 96 98 99 98 99 99 99 99 99 98 98 98 97 88 73
69 70 71 66 70 66 70 74 74 69 72 82 91 98 99 100 98 98 99 99 98 98 97 98 98 97 96 98 97 98 98 98 98 99 99 98 99 99 99 98 96 82 69
61 67 71 64 67 71 78 75 78 81 84 86 89 94 98 100 100 98 99 100 98 98 98 98 99 98 98 96 98 98 98 97 98 98 98 99 98 99 99 98 88 77 68
63 61 64 68 68 71 74 78 80 82 80 84 86 91 96 99 100 99 100 100 99 98 98 98 98 97 97 98 97 97 97 98 98 98 99 98 98 99 99 98 92 81 71
Wind_Speed
26 31 34 35 34 36 16 12 13 14 16 16 17 19 20 23 20 21 26 28 28 27 28 32 33 33 29 33 27 33 32 30 15 11 24 39 37 42 45 38 42 40 37
36 35 33 29 27 12 6 9 11 12 13 14 15 17 19 19 20 16 19 24 25 29 26 30 30 33 33 28 27 25 28 27 31 25 29 34 38 47 45 42 43 43 41
37 31 25 22 4 5 5 8 11 12 13 13 12 15 16 17 20 21 20 19 21 26 30 32 29 35 34 29 34 34 31 26 28 27 23 36 37 42 41 40 37 37 43
35 21 8 6 7 7 8 8 9 11 12 12 13 13 14 14 16 16 17 20 24 18 25 27 33 38 36 34 33 32 31 27 27 30 32 38 42 40 43 38 33 35 40
31 12 10 8 10 8 8 8 10 11 13 14 15 15 16 16 14 11 13 17 20 25 23 20 27 35 41 40 37 33 32 28 31 29 29 34 38 38 41 37 36 34 36
26 23 15 11 9 9 11 12 12 13 14 15 15 16 17 16 17 19 19 17 21 22 24 28 19 30 40 46 46 43 46 38 34 30 29 31 39 46 42 43 39 38 23
18 21 20 18 16 15 15 15 15 15 15 15 15 16 17 18 20 22 21 19 21 22 24 24 26 21 37 44 47 46 50 53 56 51 41 43 41 49 47 43 43 46 32
13 17 20 20 19 18 16 16 17 17 15 15 16 15 16 17 18 19 20 20 21 24 24 24 25 27 25 42 42 42 44 52 54 50 53 56 54 58 61 57 47 34 33
15 17 17 18 19 19 18 17 18 18 18 17 16 17 17 19 18 20 18 17 17 20 22 27 27 27 35 41 42 40 35 38 43 53 51 54 55 60 54 47 41 39 31
15 16 17 17 17 18 17 18 19 19 18 20 20 20 19 19 18 18 17 15 18 20 21 24 28 31 28 30 43 39 35 38 36 35 29 33 39 49 61 67 59 44 41
14 14 14 15 17 16 17 18 19 18 20 20 20 20 18 17 17 18 19 17 18 22 21 23 24 27 28 31 50 40 44 41 38 38 34 35 41 47 46 45 53 55 48
13 15 15 16 17 16 18 20 20 19 19 21 20 19 17 18 18 19 18 20 22 22 23 25 27 28 28 30 50 46 45 44 38 34 36 36 40 44 42 42 44 38 41
14 14 15 16 15 18 18 19 20 19 18 20 17 17 17 18 19 19 18 21 23 23 26 27 26 25 27 37 38 39 42 38 35 34 34 37 44 45 41 39 36 39 31
13 14 15 16 18 17 18 17 19 20 19 18 18 18 18 18 18 17 22 22 21 23 26 26 21 18 21 29 36 36 38 42 42 37 33 34 38 42 41 44 42 39 41
13 13 14 16 17 20 19 18 19 20 21 24 21 18 18 18 19 24 23 21 20 22 23 20 10 7 13 19 25 30 31 30 29 30 33 37 40 41 40 44 42 39 39
13 12 14 15 17 17 18 22 20 20 23 23 22 21 21 22 22 21 19 18 16 17 16 12 7 2 8 16 23 24 26 30 30 34 36 40 41 41 40 40 40 41 38
12 13 14 14 14 16 18 18 19 25 24 25 23 20 19 20 19 17 15 15 14 13 11 10 6 1 6 10 17 24 26 30 33 34 37 39 40 39 44 40 39 37 36
14 14 13 15 16 16 18 19 19 18 19 22 24 21 19 18 18 14 12 12 13 7 8 8 4 1 6 12 16 18 23 27 32 34 35 37 39 42 40 39 39 38 37
15 14 14 15 16 17 16 18 18 18 18 20 23 21 15 14 19 13 9 7 11 11 7 7 4 3 5 12 16 20 24 28 30 31 32 35 37 40 38 37 37 38 39
14 13 13 15 16 17 16 16 18 18 18 18 19 21 19 16 13 13 11 9 10 9 7 6 4 7 9 10 16 21 22 25 28 30 32 34 35 37 37 37 38 40 35
14 15 15 14 16 16 17 17 18 19 18 19 20 22 21 15 16 15 12 9 9 8 6 6 6 9 13 15 19 20 23 25 28 30 32 34 35 35 35 36 38 38 36
14 16 16 15 17 17 17 20 18 19 19 20 21 21 21 15 15 15 13 12 9 9 7 8 9 11 13 18 21 25 25 25 28 31 33 34 34 35 36 37 38 36 38
14 16 16 17 17 19 18 19 19 20 20 20 22 23 21 18 18 16 15 15 11 8 7 7 8 10 13 17 22 27 28 29 31 35 35 36 35 37 38 39 38 37 36
15 17 18 19 18 20 19 19 20 20 21 21 21 21 23 21 20 20 18 16 14 11 9 8 9 11 14 16 21 25 27 30 33 35 38 38 35 37 37 37 36 36 36
19 20 20 20 20 20 20 21 20 20 20 21 21 22 22 26 21 21 19 17 15 13 12 10 10 11 15 19 20 25 30 35 38 40 37 37 37 37 36 35 36 35 36
26 26 25 23 22 22 21 20 20 20 20 21 21 22 23 24 25 21 19 17 16 15 14 14 13 13 16 19 22 25 30 35 38 39 38 39 38 34 35 34 36 35 37
Wind_Direction
308 307 304 301 301 296 278 294 292 299 297 293 295 293 296 300 299 288 272 259 239 224 217 213 211 214 208 202 198 195 195 192 171 162 180 169 162 165 168 168 179 177 179
311 306 301 295 304 284 315 318 317 302 301 300 298 295 292 298 303 319 285 269 259 240 215 208 206 209 208 195 192 195 196 194 167 155 171 169 165 167 168 169 167 172 177
312 299 297 302 284 338 334 334 320 315 306 304 304 298 301 298 294 289 299 293 268 250 232 209 203 199 200 198 195 199 196 188 174 163 159 169 162 163 166 162 159 159 169
322 299 306 335 345 349 352 331 316 308 306 308 308 305 303 298 295 292 281 289 289 285 254 237 206 204 203 192 195 193 187 182 173 170 163 166 161 168 162 159 158 158 155
357 13 18 322 332 333 331 334 331 326 323 319 319 317 310 311 304 320 320 311 302 296 276 270 245 213 204 202 196 194 188 174 163 166 169 166 167 165 169 168 160 156 159
359 349 342 325 320 333 333 332 329 328 329 328 325 321 315 310 318 310 300 299 288 283 279 278 278 232 214 208 203 199 192 177 170 167 171 174 177 175 172 166 160 156 151
348 351 327 324 323 326 323 321 322 323 321 321 319 315 311 309 308 307 305 299 290 284 277 270 269 264 226 212 207 210 195 195 190 179 175 180 176 177 171 169 171 168 165
337 332 330 329 323 322 318 314 313 312 308 313 312 305 299 297 294 295 299 296 282 278 275 271 266 255 250 213 204 198 193 197 199 194 188 182 184 179 177 175 168 160 151
338 327 324 328 323 320 313 314 314 314 313 306 300 301 295 294 298 300 309 295 281 277 272 267 259 254 246 218 199 192 195 199 202 197 198 191 186 178 172 160 157 148 153
334 325 324 321 317 313 318 316 311 307 304 304 295 295 295 290 294 296 308 300 293 291 287 276 263 253 253 251 197 190 188 192 190 191 191 185 179 176 172 174 166 162 154
328 327 323 325 323 323 326 325 322 319 316 308 299 299 300 297 298 305 312 313 311 308 296 287 271 258 253 244 200 188 190 186 189 179 172 167 167 173 176 178 177 172 168
330 328 328 329 330 326 328 329 329 320 315 316 315 312 314 316 311 312 314 317 317 310 301 296 283 270 263 240 201 201 193 183 177 169 158 160 162 170 177 178 178 178 174
327 328 328 332 331 332 330 328 323 317 321 318 315 313 313 315 315 317 318 320 318 314 313 306 291 274 263 227 212 199 182 167 163 165 169 167 172 171 168 164 167 165 165
324 328 329 331 334 334 329 328 328 324 323 322 318 314 310 312 313 319 324 320 316 320 318 315 298 278 262 219 196 190 170 170 171 174 170 162 158 159 162 159 152 151 145
323 326 330 332 333 328 325 323 322 322 319 315 310 305 307 303 306 311 316 313 316 319 319 316 292 210 187 170 159 164 167 167 162 161 156 156 157 160 161 159 155 152 152
323 326 324 327 324 327 321 322 323 325 331 328 318 306 303 301 304 310 313 316 322 325 324 321 318 230 169 154 155 156 162 162 159 158 159 159 159 160 158 158 159 159 154
316 316 319 317 323 324 325 324 320 325 332 331 325 317 314 312 311 313 316 322 324 331 321 328 317 239 161 159 157 162 162 165 160 159 160 161 160 160 159 159 160 157 152
311 308 308 318 316 315 319 317 318 317 321 323 324 319 311 321 318 314 314 326 319 305 308 307 320 63 157 157 156 154 155 153 159 160 161 162 162 159 161 161 162 156 151
309 306 315 312 307 307 306 317 314 314 315 316 320 323 326 321 321 310 306 305 314 317 308 287 236 167 121 146 152 151 154 157 158 157 159 160 161 161 162 160 159 154 154
305 308 308 308 309 309 314 314 318 318 317 317 316 316 324 322 307 300 290 296 301 302 298 275 227 182 167 145 146 150 151 152 155 156 157 160 162 163 163 158 157 154 155
304 305 308 306 314 313 315 312 312 314 313 316 312 312 318 312 305 299 292 291 297 294 284 265 226 197 182 173 168 160 159 159 160 159 159 161 161 163 162 157 153 152 152
299 300 302 309 308 311 314 312 308 311 313 316 319 315 315 304 299 292 286 283 284 282 272 253 235 204 191 182 174 168 163 160 162 160 159 160 161 157 155 152 152 155 155
300 299 302 304 308 308 304 310 311 314 314 316 319 321 316 307 298 291 284 284 276 268 259 242 224 210 199 192 186 175 169 166 163 160 157 158 156 156 156 154 155 156 156
299 298 298 301 302 303 303 307 307 307 313 314 314 317 321 311 300 296 288 278 267 258 248 230 217 207 199 189 184 178 172 167 164 160 159 158 155 156 156 155 153 155 155
302 298 292 290 295 296 297 297 301 303 305 308 313 313 315 319 304 297 290 275 259 253 242 221 209 200 189 182 177 175 175 172 165 163 160 158 156 154 153 150 153 156 156
291 287 285 284 284 285 288 291 294 297 301 303 307 309 313 314 312 299 288 269 248 245 236 222 210 202 188 184 182 181 176 171 167 164 161 159 155 153 154 155 158 158 161